This is the latest recevied weather packets stored in our database for station/object DD3FC-1. If no packets are shown the sender has not sent any weather packets the latest 10 day(s).
| Time | Temp. | Humidity | Pressure | Rain* | Wind** | Luminosity | Snow |
|---|---|---|---|---|---|---|---|
| 1777782637 | 12.78° C | 70% | 1015.7 hPa | 0 mm | - | - | - |
| 1777782037 | 12.78° C | 71% | 1015.7 hPa | 0 mm | - | - | - |
| 1777781437 | 12.78° C | 70% | 1015.6 hPa | 0 mm | - | - | - |
| 1777780837 | 12.78° C | 71% | 1015.9 hPa | 0 mm | - | - | - |
| 1777780237 | 12.78° C | 70% | 1015.8 hPa | 0 mm | - | - | - |
| 1777779637 | 12.78° C | 69% | 1015.7 hPa | 0 mm | - | - | - |
| 1777779038 | 13.33° C | 68% | 1015.7 hPa | 0 mm | - | - | - |
| 1777778437 | 13.33° C | 68% | 1015.9 hPa | 0 mm | - | - | - |
| 1777777837 | 13.33° C | 67% | 1016 hPa | 0 mm | - | - | - |
| 1777777237 | 13.33° C | 68% | 1015.9 hPa | 0 mm | - | - | - |
| 1777776638 | 13.33° C | 67% | 1015.7 hPa | 0 mm | - | - | - |
| 1777776038 | 13.89° C | 66% | 1015.7 hPa | 0 mm | - | - | - |
| 1777775438 | 13.89° C | 64% | 1015.8 hPa | 0 mm | - | - | - |
| 1777774838 | 13.89° C | 66% | 1015.8 hPa | 0 mm | - | - | - |
| 1777774238 | 13.33° C | 68% | 1015.9 hPa | 0 mm | - | - | - |
| 1777773638 | 13.89° C | 68% | 1015.7 hPa | 0 mm | - | - | - |
| 1777773038 | 13.89° C | 68% | 1015.9 hPa | 0 mm | - | - | - |
| 1777772438 | 13.89° C | 67% | 1016.1 hPa | 0 mm | - | - | - |
| 1777771838 | 14.44° C | 66% | 1016.1 hPa | 0 mm | - | - | - |
| 1777771238 | 15° C | 62% | 1016.2 hPa | 0 mm | - | - | - |
| 1777770638 | 15° C | 62% | 1016.2 hPa | 0 mm | - | - | - |
| 1777770038 | 15° C | 63% | 1016.2 hPa | 0 mm | - | - | - |
| 1777769438 | 15° C | 63% | 1016.3 hPa | 0 mm | - | - | - |
| 1777768838 | 15° C | 63% | 1016.1 hPa | 0 mm | - | - | - |
| 1777768238 | 15° C | 64% | 1016.1 hPa | 0 mm | - | - | - |
* Rain latest hour (hover to see other rain measurements)
** Current wind speed in m/s (hover to see current wind gust speed)